This is the latest recevied weather packets stored in our database for station/object IZ0VWB-3. If no packets are shown the sender has not sent any weather packets the latest 10 day(s).
| Time | Temp. | Humidity | Pressure | Rain* | Wind** | Luminosity | Snow |
|---|---|---|---|---|---|---|---|
| 1777184619 | 15° C | 57% | 1004.8 hPa | 0 mm | - | - | - |
| 1777184020 | 13.89° C | 56% | 1004.8 hPa | 0 mm | - | - | - |
| 1777183419 | 13.89° C | 56% | 1004.7 hPa | 0 mm | - | - | - |
| 1777182818 | 12.78° C | 60% | 1004.8 hPa | 0 mm | - | - | - |
| 1777182220 | 12.22° C | 61% | 1004.8 hPa | 0 mm | - | - | - |
| 1777181619 | 11.67° C | 62% | 1004.8 hPa | 0 mm | - | - | - |
| 1777181020 | 10.56° C | 64% | 1004.5 hPa | 0 mm | - | - | - |
| 1777180418 | 10.56° C | 63% | 1004.4 hPa | 0 mm | - | - | - |
| 1777179818 | 10° C | 65% | 1004.4 hPa | 0 mm | - | - | - |
| 1777179218 | 9.44° C | 65% | 1004.2 hPa | 0 mm | - | - | - |
| 1777178618 | 8.89° C | 67% | 1004.2 hPa | 0 mm | - | - | - |
| 1777178017 | 8.33° C | 66% | 1004.2 hPa | 0 mm | - | - | - |
| 1777177417 | 8.33° C | 68% | 1004.2 hPa | 0 mm | - | - | - |
| 1777176819 | 8.33° C | 67% | 1004.1 hPa | 0 mm | - | - | - |
| 1777176218 | 8.33° C | 66% | 1004.1 hPa | 0 mm | - | - | - |
| 1777175617 | 8.89° C | 66% | 1004.2 hPa | 0 mm | - | - | - |
| 1777175018 | 8.89° C | 66% | 1004.3 hPa | 0 mm | - | - | - |
| 1777174419 | 8.33° C | 67% | 1004.2 hPa | 0 mm | - | - | - |
| 1777173817 | 8.33° C | 68% | 1004.2 hPa | 0 mm | - | - | - |
| 1777173219 | 8.33° C | 68% | 1004.3 hPa | 0 mm | - | - | - |
| 1777172620 | 8.33° C | 67% | 1004.1 hPa | 0 mm | - | - | - |
| 1777172022 | 8.33° C | 66% | 1004.2 hPa | 0 mm | - | - | - |
| 1777171420 | 8.33° C | 66% | 1004.2 hPa | 0 mm | - | - | - |
| 1777170821 | 8.33° C | 66% | 1004.2 hPa | 0 mm | - | - | - |
| 1777170222 | 8.33° C | 66% | 1004.2 hPa | 0 mm | - | - | - |
* Rain latest hour (hover to see other rain measurements)
** Current wind speed in m/s (hover to see current wind gust speed)